Weather History for Hatteras, NC

Change the Weather History Date:

Thursday, March 15, 2012

  Actual Average Record
Temperature  
Mean Temperature 62 °F 51 °F  
Max Temperature 72 °F 58 °F 79 °F (1990)
Min Temperature 51 °F 44 °F 22 °F (1981)
Degree Days  
Heating Degree Days 3 14  
Month to date heating degree days 114 230  
Since 1 July heating degree days 1525 2154  
Cooling Degree Days 0 0  
Month to date cooling degree days 1 0  
Year to date cooling degree days 1 0  
Growing Degree Days 11 (Base 50)    
Moisture  
Dew Point 57 °F    
Average Humidity 83    
Maximum Humidity 97    
Minimum Humidity 68    
Precipitation  
Precipitation 0.00 in 0.15 in 1.59 in (2008)
Month to date precipitation 1.99 2.25  
Year to date precipitation 10.45 11.51  
Snow  
Snow 0.00 in - - ()
Month to date snowfall 0.0  
Since 1 July snowfall T  
Snow Depth 0.00 in    
Sea Level Pressure  
Sea Level Pressure 30.26 in    
Wind  
Wind Speed 6 mph (SW)    
Max Wind Speed 10 mph    
Max Gust Speed 14 mph    
Visibility 5 miles    
Events Fog    
T = Trace of Precipitation, MM = Missing Value Source: NWS Daily Summary

Daily Weather History Graph

Daily Weather History Graph

Search for Another Location

Airport:

Trip Planner

Search our weather history database for the weather conditions in past years. The results will help you decide how hot, cold, wet, or windy it might be!

Date:

Astronomy

Mar. 15, 2012 Rise Set
Actual Time 7:12 AM EDT 7:10 PM EDT
Civil Twilight 6:47 AM EDT 7:35 PM EDT
Nautical Twilight 6:17 AM EDT 8:05 PM EDT
Astronomical Twilight 5:48 AM EDT 8:35 PM EDT
Moon 2:25 AM EDT (3/15) 12:37 PM EDT (3/15)
Length of Visible Light 12h 48m
Length of Day
11h 57m
Last Quarter, 43% of the Moon is Illuminated
Mar 15
Last Quarter
Mar 22
New
Mar 30
First Quarter
Apr 6
Full
Apr 13
Last Quarter

Hourly Weather History & Observations

Time (EDT) Temp. Dew Point Humidity Pressure Visibility Wind Dir Wind Speed Gust Speed Precip Events Conditions
12:12 AM 53.6 °F 51.8 °F 94% 30.25 in 0.8 mi Calm Calm - N/A   Clear
12:21 AM 55.4 °F 51.8 °F 88% 30.25 in 0.2 mi SW 3.5 mph - N/A Fog Fog
12:35 AM 55.4 °F 51.8 °F 88% 30.25 in 0.5 mi Calm Calm - N/A Fog Fog
12:47 AM 53.6 °F 51.8 °F 94% 30.24 in 1.5 mi Calm Calm - N/A   Clear
12:49 AM 53.6 °F 51.8 °F 94% 30.24 in 0.8 mi Calm Calm - N/A   Clear
12:51 AM 54.0 °F 51.1 °F 90% 30.25 in 0.5 mi Calm Calm - N/A Fog Fog
1:06 AM 53.6 °F 51.8 °F 94% 30.25 in 0.5 mi Calm Calm - N/A Fog Fog
1:15 AM 53.6 °F 51.8 °F 94% 30.25 in 0.2 mi Calm Calm - N/A Fog Fog
1:25 AM 53.6 °F 51.8 °F 94% 30.25 in 0.2 mi WSW 3.5 mph - N/A Fog Fog
1:51 AM 52.0 °F 50.0 °F 93% 30.25 in 0.2 mi SW 3.5 mph - N/A Fog Fog
2:10 AM 53.6 °F 51.8 °F 94% 30.25 in 0.2 mi Calm Calm - N/A Fog Fog
2:18 AM 53.6 °F 51.8 °F 94% 30.25 in 0.5 mi Calm Calm - N/A Fog Fog
2:40 AM 51.8 °F 50.0 °F 94% 30.25 in 0.2 mi Calm Calm - N/A Fog Fog
2:51 AM 53.1 °F 50.0 °F 89% 30.25 in 0.2 mi WSW 4.6 mph - N/A Fog Fog
3:14 AM 55.4 °F 53.6 °F 94% 30.24 in 0.2 mi SW 3.5 mph - N/A Fog Fog
3:26 AM 57.2 °F 55.4 °F 94% 30.24 in 1.0 mi WSW 3.5 mph - N/A   Clear
3:29 AM 59.0 °F 55.4 °F 88% 30.24 in 2.0 mi WSW 3.5 mph - N/A   Clear
3:38 AM 59.0 °F 57.2 °F 94% 30.24 in 4.0 mi WSW 3.5 mph - N/A   Clear
3:51 AM 61.0 °F 59.0 °F 93% 30.24 in 5.0 mi West 3.5 mph - N/A   Clear
4:51 AM 60.1 °F 59.0 °F 96% 30.24 in 6.0 mi WSW 4.6 mph - N/A   Clear
5:51 AM 61.0 °F 59.0 °F 93% 30.26 in 5.0 mi WSW 4.6 mph - N/A   Clear
6:51 AM 61.0 °F 59.0 °F 93% 30.27 in 7.0 mi WSW 3.5 mph - N/A   Clear
7:51 AM 62.1 °F 61.0 °F 96% 30.28 in 4.0 mi SW 4.6 mph - N/A   Clear
8:51 AM 64.9 °F 63.0 °F 93% 30.29 in 8.0 mi SW 4.6 mph - N/A   Clear
9:51 AM 66.0 °F 63.0 °F 90% 30.30 in 10.0 mi SSW 4.6 mph - N/A   Clear
10:51 AM 69.1 °F 63.0 °F 81% 30.30 in 10.0 mi SW 6.9 mph - N/A   Clear
11:51 AM 69.1 °F 63.0 °F 81% 30.30 in 10.0 mi SSW 6.9 mph - N/A   Clear
12:51 PM 71.1 °F 61.0 °F 70% 30.31 in 10.0 mi WSW 9.2 mph - N/A   Clear
1:51 PM 69.1 °F 62.1 °F 78% 30.28 in 10.0 mi SSW 6.9 mph - N/A   Clear
2:51 PM 71.1 °F 62.1 °F 73% 30.27 in 10.0 mi SW 8.1 mph - N/A   Clear
3:51 PM 70.0 °F 63.0 °F 78% 30.26 in 10.0 mi SSW 5.8 mph - N/A   Clear
4:51 PM 70.0 °F 63.0 °F 78% 30.25 in 10.0 mi SSW 4.6 mph - N/A   Clear
5:51 PM 69.1 °F 63.0 °F 81% 30.24 in 10.0 mi SSW 4.6 mph - N/A   Clear
6:51 PM 66.9 °F 62.1 °F 84% 30.25 in 10.0 mi SSW 8.1 mph - N/A   Clear
7:51 PM 66.0 °F 63.0 °F 90% 30.25 in 10.0 mi SSW 4.6 mph - N/A   Clear
8:51 PM 66.0 °F 63.0 °F 90% 30.25 in 10.0 mi SSW 6.9 mph - N/A   Clear
9:51 PM 66.0 °F 63.0 °F 90% 30.25 in 10.0 mi SSW 8.1 mph - N/A   Clear
10:51 PM 66.0 °F 63.0 °F 90% 30.25 in 10.0 mi South 5.8 mph - N/A   Clear
11:51 PM 66.9 °F 64.0 °F 90% 30.25 in 10.0 mi SSW 3.5 mph - N/A   Clear